iso_date,epoch_date,Year,Hour,Min,DOY,POS_DOY,Lat,Lon,BP,Ts,Ta,has_bp,has_ts,has_ta,BuoyID,Buoy_Type,Buoy_Owner,Logistics,Hemisphere
2012-05-31T00:00:00Z,1338422400,2012,0,0,152.0,152.0,71.3554,-155.6676,1001.4,1.4,-999.0,yes,yes,no,300234010421100,SVP-B,unknown,unknown,North
2012-05-31T01:00:28Z,1338426029,2012,1,0,152.042,152.042,71.3554,-155.6676,1001.4,1.4,-999.0,yes,yes,no,300234010421100,SVP-B,unknown,unknown,North
2012-05-31T01:59:31Z,1338429571,2012,2,0,152.083,152.083,71.3554,-155.6676,1001.5,1.3,-999.0,yes,yes,no,300234010421100,SVP-B,unknown,unknown,North
2012-05-31T03:00:00Z,1338433200,2012,3,0,152.125,152.125,71.3554,-155.6676,1001.2,1.2,-999.0,yes,yes,no,300234010421100,SVP-B,unknown,unknown,North
2012-05-31T04:00:28Z,1338436829,2012,4,0,152.167,152.167,71.3554,-155.6676,1001.0,1.0,-999.0,yes,yes,no,300234010421100,SVP-B,unknown,unknown,North
2012-05-31T04:59:31Z,1338440371,2012,5,0,152.208,152.208,71.3554,-155.6674,1000.8,0.8,-999.0,yes,yes,no,300234010421100,SVP-B,unknown,unknown,North
2012-05-31T06:00:00Z,1338444000,2012,6,0,152.25,152.25,71.3554,-155.6676,1001.0,0.6,-999.0,yes,yes,no,300234010421100,SVP-B,unknown,unknown,North
2012-05-31T07:00:28Z,1338447629,2012,7,0,152.292,152.292,71.3554,-155.6676,1000.6,0.4,-999.0,yes,yes,no,300234010421100,SVP-B,unknown,unknown,North
2012-05-31T07:59:31Z,1338451171,2012,8,0,152.333,152.333,71.3554,-155.6674,1000.9,0.2,-999.0,yes,yes,no,300234010421100,SVP-B,unknown,unknown,North
2012-05-31T09:00:00Z,1338454800,2012,9,0,152.375,152.375,71.3554,-155.6676,1001.0,0.1,-999.0,yes,yes,no,300234010421100,SVP-B,unknown,unknown,North
2012-05-31T10:00:28Z,1338458429,2012,10,0,152.417,152.417,71.3554,-155.6676,1001.3,-0.1,-999.0,yes,yes,no,300234010421100,SVP-B,unknown,unknown,North
2012-05-31T10:59:31Z,1338461971,2012,11,0,152.458,152.458,71.3554,-155.6676,1000.9,-0.2,-999.0,yes,yes,no,300234010421100,SVP-B,unknown,unknown,North
2012-05-31T12:00:00Z,1338465600,2012,12,0,152.5,152.5,71.3554,-155.6676,1000.7,-0.3,-999.0,yes,yes,no,300234010421100,SVP-B,unknown,unknown,North
2012-05-31T13:00:28Z,1338469229,2012,13,0,152.542,152.542,71.3554,-155.6676,1000.6,-0.4,-999.0,yes,yes,no,300234010421100,SVP-B,unknown,unknown,North
2012-05-31T13:59:31Z,1338472771,2012,14,0,152.583,152.583,71.3554,-155.6676,1000.7,-0.4,-999.0,yes,yes,no,300234010421100,SVP-B,unknown,unknown,North
2012-05-31T15:00:00Z,1338476400,2012,15,0,152.625,152.625,71.3554,-155.6676,1000.7,-0.4,-999.0,yes,yes,no,300234010421100,SVP-B,unknown,unknown,North
2012-05-31T16:00:28Z,1338480029,2012,16,0,152.667,152.667,71.3554,-155.6676,1000.8,-0.3,-999.0,yes,yes,no,300234010421100,SVP-B,unknown,unknown,North
2012-05-31T16:59:31Z,1338483571,2012,17,0,152.708,152.708,71.3554,-155.6676,1001.3,-0.1,-999.0,yes,yes,no,300234010421100,SVP-B,unknown,unknown,North
2012-05-31T18:00:00Z,1338487200,2012,18,0,152.75,152.75,71.3554,-155.6676,1001.5,0.2,-999.0,yes,yes,no,300234010421100,SVP-B,unknown,unknown,North
2012-05-31T19:00:28Z,1338490829,2012,19,0,152.792,152.792,71.3554,-155.6676,1001.9,0.4,-999.0,yes,yes,no,300234010421100,SVP-B,unknown,unknown,North
2012-05-31T19:59:31Z,1338494371,2012,20,0,152.833,152.833,71.3554,-155.6674,1002.5,0.7,-999.0,yes,yes,no,300234010421100,SVP-B,unknown,unknown,North
2012-05-31T21:00:00Z,1338498000,2012,21,0,152.875,152.875,71.3554,-155.6676,1002.2,1.1,-999.0,yes,yes,no,300234010421100,SVP-B,unknown,unknown,North
2012-05-31T22:00:28Z,1338501629,2012,22,0,152.917,152.917,71.3554,-155.6676,1003.1,1.4,-999.0,yes,yes,no,300234010421100,SVP-B,unknown,unknown,North
2012-05-31T22:59:31Z,1338505171,2012,23,0,152.958,152.958,71.3554,-155.6676,1002.3,1.7,-999.0,yes,yes,no,300234010421100,SVP-B,unknown,unknown,North
2012-06-01T00:00:00Z,1338508800,2012,0,0,153.0,153.0,71.3554,-155.6678,1002.3,1.8,-999.0,yes,yes,no,300234010421100,SVP-B,unknown,unknown,North
2012-06-01T01:00:28Z,1338512429,2012,1,0,153.042,153.042,71.3554,-155.6676,1002.1,1.7,-999.0,yes,yes,no,300234010421100,SVP-B,unknown,unknown,North
2012-06-01T01:59:31Z,1338515971,2012,2,0,153.083,153.083,71.3554,-155.6676,1003.2,1.7,-999.0,yes,yes,no,300234010421100,SVP-B,unknown,unknown,North
2012-06-01T03:00:00Z,1338519600,2012,3,0,153.125,153.125,71.3554,-155.6676,1003.0,1.7,-999.0,yes,yes,no,300234010421100,SVP-B,unknown,unknown,North
2012-06-01T04:00:28Z,1338523229,2012,4,0,153.167,153.167,71.3554,-155.6674,1003.2,1.5,-999.0,yes,yes,no,300234010421100,SVP-B,unknown,unknown,North
2012-06-01T04:59:31Z,1338526771,2012,5,0,153.208,153.208,71.3554,-155.6676,1003.6,1.3,-999.0,yes,yes,no,300234010421100,SVP-B,unknown,unknown,North
2012-06-01T06:00:00Z,1338530400,2012,6,0,153.25,153.25,71.3554,-155.6676,1005.1,1.3,-999.0,yes,yes,no,300234010421100,SVP-B,unknown,unknown,North
2012-06-01T07:00:28Z,1338534029,2012,7,0,153.292,153.292,71.3554,-155.6676,1004.2,1.2,-999.0,yes,yes,no,300234010421100,SVP-B,unknown,unknown,North
2012-06-01T07:59:31Z,1338537571,2012,8,0,153.333,153.333,71.3554,-155.6676,1004.1,0.9,-999.0,yes,yes,no,300234010421100,SVP-B,unknown,unknown,North
2012-06-01T09:00:00Z,1338541200,2012,9,0,153.375,153.375,71.3554,-155.6676,1004.6,0.7,-999.0,yes,yes,no,300234010421100,SVP-B,unknown,unknown,North
2012-06-01T10:00:28Z,1338544829,2012,10,0,153.417,153.417,71.3554,-155.6678,1005.3,0.4,-999.0,yes,yes,no,300234010421100,SVP-B,unknown,unknown,North
2012-06-01T10:59:31Z,1338548371,2012,11,0,153.458,153.458,71.3554,-155.6676,1006.3,0.2,-999.0,yes,yes,no,300234010421100,SVP-B,unknown,unknown,North
2012-06-01T12:00:00Z,1338552000,2012,12,0,153.5,153.5,71.3554,-155.6676,1006.8,0.0,-999.0,yes,yes,no,300234010421100,SVP-B,unknown,unknown,North
2012-06-01T13:00:28Z,1338555629,2012,13,0,153.542,153.542,71.3554,-155.6676,1007.0,0.0,-999.0,yes,yes,no,300234010421100,SVP-B,unknown,unknown,North
2012-06-01T13:59:31Z,1338559171,2012,14,0,153.583,153.583,71.3554,-155.6674,1007.9,0.0,-999.0,yes,yes,no,300234010421100,SVP-B,unknown,unknown,North
2012-06-01T15:00:00Z,1338562800,2012,15,0,153.625,153.625,71.3554,-155.6676,1008.5,0.0,-999.0,yes,yes,no,300234010421100,SVP-B,unknown,unknown,North
2012-06-01T16:00:28Z,1338566429,2012,16,0,153.667,153.667,71.3554,-155.6676,1009.2,0.3,-999.0,yes,yes,no,300234010421100,SVP-B,unknown,unknown,North
2012-06-01T16:59:31Z,1338569971,2012,17,0,153.708,153.708,71.3554,-155.6676,1008.3,0.5,-999.0,yes,yes,no,300234010421100,SVP-B,unknown,unknown,North
2012-06-01T18:00:00Z,1338573600,2012,18,0,153.75,153.75,71.3554,-155.6676,1009.1,0.7,-999.0,yes,yes,no,300234010421100,SVP-B,unknown,unknown,North
2012-06-01T19:00:28Z,1338577229,2012,19,0,153.792,153.792,71.3554,-155.6676,1009.2,0.9,-999.0,yes,yes,no,300234010421100,SVP-B,unknown,unknown,North
2012-06-01T19:59:31Z,1338580771,2012,20,0,153.833,153.833,71.3554,-155.6676,1009.5,1.1,-999.0,yes,yes,no,300234010421100,SVP-B,unknown,unknown,North
2012-06-01T21:00:00Z,1338584400,2012,21,0,153.875,153.875,71.3554,-155.6674,1010.2,1.3,-999.0,yes,yes,no,300234010421100,SVP-B,unknown,unknown,North
2012-06-01T22:00:28Z,1338588029,2012,22,0,153.917,153.917,71.3554,-155.6676,1010.4,1.6,-999.0,yes,yes,no,300234010421100,SVP-B,unknown,unknown,North
2012-06-01T22:59:31Z,1338591571,2012,23,0,153.958,153.958,71.3554,-155.6676,1011.1,1.9,-999.0,yes,yes,no,300234010421100,SVP-B,unknown,unknown,North
2012-06-02T00:00:00Z,1338595200,2012,0,0,154.0,154.0,71.3554,-155.6676,1010.5,2.2,-999.0,yes,yes,no,300234010421100,SVP-B,unknown,unknown,North
2012-06-02T01:00:28Z,1338598829,2012,1,0,154.042,154.042,71.3554,-155.6676,1010.8,2.2,-999.0,yes,yes,no,300234010421100,SVP-B,unknown,unknown,North
2012-06-02T01:59:31Z,1338602371,2012,2,0,154.083,154.083,71.3554,-155.6676,1010.9,2.3,-999.0,yes,yes,no,300234010421100,SVP-B,unknown,unknown,North
2012-06-02T03:00:00Z,1338606000,2012,3,0,154.125,154.125,71.3554,-155.6676,1010.3,2.3,-999.0,yes,yes,no,300234010421100,SVP-B,unknown,unknown,North
2012-06-02T04:00:28Z,1338609629,2012,4,0,154.167,154.167,71.3554,-155.6676,1010.1,2.0,-999.0,yes,yes,no,300234010421100,SVP-B,unknown,unknown,North
2012-06-02T04:59:31Z,1338613171,2012,5,0,154.208,154.208,71.3554,-155.6676,1011.8,1.9,-999.0,yes,yes,no,300234010421100,SVP-B,unknown,unknown,North
2012-06-02T06:00:00Z,1338616800,2012,6,0,154.25,154.25,71.3554,-155.6676,1011.0,1.8,-999.0,yes,yes,no,300234010421100,SVP-B,unknown,unknown,North
2012-06-02T07:00:28Z,1338620429,2012,7,0,154.292,154.292,71.3554,-155.6676,1010.7,1.5,-999.0,yes,yes,no,300234010421100,SVP-B,unknown,unknown,North
2012-06-02T07:59:31Z,1338623971,2012,8,0,154.333,154.333,71.3554,-155.6676,1011.7,1.2,-999.0,yes,yes,no,300234010421100,SVP-B,unknown,unknown,North
2012-06-02T09:00:00Z,1338627600,2012,9,0,154.375,154.375,71.3554,-155.6676,1012.2,1.0,-999.0,yes,yes,no,300234010421100,SVP-B,unknown,unknown,North
2012-06-02T10:00:28Z,1338631229,2012,10,0,154.417,154.417,71.3554,-155.6678,1012.1,0.8,-999.0,yes,yes,no,300234010421100,SVP-B,unknown,unknown,North
2012-06-02T10:59:31Z,1338634771,2012,11,0,154.458,154.458,71.3554,-155.6676,1012.9,0.6,-999.0,yes,yes,no,300234010421100,SVP-B,unknown,unknown,North
2012-06-02T12:00:00Z,1338638400,2012,12,0,154.5,154.5,71.3554,-155.6676,1013.8,0.5,-999.0,yes,yes,no,300234010421100,SVP-B,unknown,unknown,North
2012-06-02T13:00:28Z,1338642029,2012,13,0,154.542,154.542,71.3554,-155.6676,1013.6,0.5,-999.0,yes,yes,no,300234010421100,SVP-B,unknown,unknown,North
2012-06-02T13:59:31Z,1338645571,2012,14,0,154.583,154.583,71.3554,-155.6676,1013.7,0.4,-999.0,yes,yes,no,300234010421100,SVP-B,unknown,unknown,North
2012-06-02T15:00:00Z,1338649200,2012,15,0,154.625,154.625,71.3554,-155.6676,1015.0,0.5,-999.0,yes,yes,no,300234010421100,SVP-B,unknown,unknown,North
2012-06-02T16:00:28Z,1338652829,2012,16,0,154.667,154.667,71.3554,-155.6676,1015.2,0.7,-999.0,yes,yes,no,300234010421100,SVP-B,unknown,unknown,North
2012-06-02T16:59:31Z,1338656371,2012,17,0,154.708,154.708,71.3554,-155.6676,1015.5,0.9,-999.0,yes,yes,no,300234010421100,SVP-B,unknown,unknown,North
2012-06-02T18:00:00Z,1338660000,2012,18,0,154.75,154.75,71.3554,-155.6676,1015.4,1.1,-999.0,yes,yes,no,300234010421100,SVP-B,unknown,unknown,North
2012-06-02T19:00:28Z,1338663629,2012,19,0,154.792,154.792,71.3554,-155.6676,1015.5,1.3,-999.0,yes,yes,no,300234010421100,SVP-B,unknown,unknown,North
2012-06-02T19:59:31Z,1338667171,2012,20,0,154.833,154.833,71.3554,-155.6676,1015.3,1.3,-999.0,yes,yes,no,300234010421100,SVP-B,unknown,unknown,North
2012-06-02T21:00:00Z,1338670800,2012,21,0,154.875,154.875,71.3554,-155.6676,1016.2,1.5,-999.0,yes,yes,no,300234010421100,SVP-B,unknown,unknown,North
2012-06-02T22:00:28Z,1338674429,2012,22,0,154.917,154.917,71.3554,-155.6676,1016.7,1.9,-999.0,yes,yes,no,300234010421100,SVP-B,unknown,unknown,North
2012-06-02T22:59:31Z,1338677971,2012,23,0,154.958,154.958,71.3554,-155.6676,1016.2,2.1,-999.0,yes,yes,no,300234010421100,SVP-B,unknown,unknown,North
2012-06-03T00:00:00Z,1338681600,2012,0,0,155.0,155.0,71.3554,-155.6676,1016.3,2.1,-999.0,yes,yes,no,300234010421100,SVP-B,unknown,unknown,North
2012-06-03T01:00:28Z,1338685229,2012,1,0,155.042,155.042,71.3554,-155.6678,1015.3,2.0,-999.0,yes,yes,no,300234010421100,SVP-B,unknown,unknown,North
2012-06-03T01:59:31Z,1338688771,2012,2,0,155.083,155.083,71.3554,-155.6678,1015.9,1.8,-999.0,yes,yes,no,300234010421100,SVP-B,unknown,unknown,North
2012-06-03T03:00:00Z,1338692400,2012,3,0,155.125,155.125,71.3554,-155.6674,1016.3,1.7,-999.0,yes,yes,no,300234010421100,SVP-B,unknown,unknown,North
2012-06-03T04:00:28Z,1338696029,2012,4,0,155.167,155.167,71.3554,-155.6674,1016.0,1.4,-999.0,yes,yes,no,300234010421100,SVP-B,unknown,unknown,North
2012-06-03T04:59:31Z,1338699571,2012,5,0,155.208,155.208,71.3554,-155.6676,1016.6,1.2,-999.0,yes,yes,no,300234010421100,SVP-B,unknown,unknown,North
2012-06-03T06:00:00Z,1338703200,2012,6,0,155.25,155.25,71.3554,-155.6676,1016.8,1.1,-999.0,yes,yes,no,300234010421100,SVP-B,unknown,unknown,North
2012-06-03T07:00:28Z,1338706829,2012,7,0,155.292,155.292,71.3554,-155.6676,1016.8,0.9,-999.0,yes,yes,no,300234010421100,SVP-B,unknown,unknown,North
2012-06-03T07:59:31Z,1338710371,2012,8,0,155.333,155.333,71.3554,-155.6676,1017.2,0.8,-999.0,yes,yes,no,300234010421100,SVP-B,unknown,unknown,North
2012-06-03T09:00:00Z,1338714000,2012,9,0,155.375,155.375,71.3554,-155.6676,1017.5,0.7,-999.0,yes,yes,no,300234010421100,SVP-B,unknown,unknown,North
2012-06-03T10:00:28Z,1338717629,2012,10,0,155.417,155.417,71.3554,-155.6676,1017.9,0.6,-999.0,yes,yes,no,300234010421100,SVP-B,unknown,unknown,North
2012-06-03T10:59:31Z,1338721171,2012,11,0,155.458,155.458,71.3554,-155.6676,1018.1,0.5,-999.0,yes,yes,no,300234010421100,SVP-B,unknown,unknown,North
2012-06-03T12:00:00Z,1338724800,2012,12,0,155.5,155.5,71.3554,-155.6676,1018.2,0.5,-999.0,yes,yes,no,300234010421100,SVP-B,unknown,unknown,North
2012-06-03T13:00:28Z,1338728429,2012,13,0,155.542,155.542,71.3554,-155.6676,1018.4,0.5,-999.0,yes,yes,no,300234010421100,SVP-B,unknown,unknown,North
2012-06-03T13:59:31Z,1338731971,2012,14,0,155.583,155.583,71.3554,-155.6676,1018.5,0.5,-999.0,yes,yes,no,300234010421100,SVP-B,unknown,unknown,North
2012-06-03T15:00:00Z,1338735600,2012,15,0,155.625,155.625,71.3554,-155.6676,1018.9,0.5,-999.0,yes,yes,no,300234010421100,SVP-B,unknown,unknown,North
2012-06-03T16:00:28Z,1338739229,2012,16,0,155.667,155.667,71.3554,-155.6676,1019.2,0.6,-999.0,yes,yes,no,300234010421100,SVP-B,unknown,unknown,North
2012-06-03T16:59:31Z,1338742771,2012,17,0,155.708,155.708,71.3554,-155.6676,1019.5,0.7,-999.0,yes,yes,no,300234010421100,SVP-B,unknown,unknown,North
2012-06-03T18:00:00Z,1338746400,2012,18,0,155.75,155.75,71.3554,-155.6676,1020.1,0.9,-999.0,yes,yes,no,300234010421100,SVP-B,unknown,unknown,North
2012-06-03T19:00:28Z,1338750029,2012,19,0,155.792,155.792,71.3554,-155.6676,1021.2,1.2,-999.0,yes,yes,no,300234010421100,SVP-B,unknown,unknown,North
2012-06-03T19:59:31Z,1338753571,2012,20,0,155.833,155.833,71.3554,-155.6674,1019.9,1.4,-999.0,yes,yes,no,300234010421100,SVP-B,unknown,unknown,North
2012-06-03T21:00:00Z,1338757200,2012,21,0,155.875,155.875,71.3554,-155.6676,1020.8,1.5,-999.0,yes,yes,no,300234010421100,SVP-B,unknown,unknown,North
2012-06-03T22:00:28Z,1338760829,2012,22,0,155.917,155.917,71.3554,-155.6676,1020.9,1.6,-999.0,yes,yes,no,300234010421100,SVP-B,unknown,unknown,North
2012-06-03T22:59:31Z,1338764371,2012,23,0,155.958,155.958,71.3554,-155.6676,1021.1,1.7,-999.0,yes,yes,no,300234010421100,SVP-B,unknown,unknown,North
2012-06-04T00:00:00Z,1338768000,2012,0,0,156.0,156.0,71.3554,-155.6678,1021.0,1.7,-999.0,yes,yes,no,300234010421100,SVP-B,unknown,unknown,North
2012-06-04T01:00:28Z,1338771629,2012,1,0,156.042,156.042,71.3554,-155.6676,1021.5,1.8,-999.0,yes,yes,no,300234010421100,SVP-B,unknown,unknown,North
2012-06-04T01:59:31Z,1338775171,2012,2,0,156.083,156.083,71.3554,-155.6678,1021.1,1.7,-999.0,yes,yes,no,300234010421100,SVP-B,unknown,unknown,North
2012-06-04T03:00:00Z,1338778800,2012,3,0,156.125,156.125,71.3554,-155.6676,1021.6,1.8,-999.0,yes,yes,no,300234010421100,SVP-B,unknown,unknown,North
2012-06-04T04:00:28Z,1338782429,2012,4,0,156.167,156.167,71.3554,-155.6676,1021.0,1.7,-999.0,yes,yes,no,300234010421100,SVP-B,unknown,unknown,North
2012-06-04T04:59:31Z,1338785971,2012,5,0,156.208,156.208,71.3554,-155.6676,1021.2,1.5,-999.0,yes,yes,no,300234010421100,SVP-B,unknown,unknown,North
2012-06-04T06:00:00Z,1338789600,2012,6,0,156.25,156.25,71.3554,-155.6676,1021.3,1.3,-999.0,yes,yes,no,300234010421100,SVP-B,unknown,unknown,North
2012-06-04T07:00:28Z,1338793229,2012,7,0,156.292,156.292,71.3554,-155.6676,1021.5,1.1,-999.0,yes,yes,no,300234010421100,SVP-B,unknown,unknown,North
2012-06-04T07:59:31Z,1338796771,2012,8,0,156.333,156.333,71.3554,-155.6676,1022.0,1.0,-999.0,yes,yes,no,300234010421100,SVP-B,unknown,unknown,North
2012-06-04T09:00:00Z,1338800400,2012,9,0,156.375,156.375,71.3554,-155.6676,1022.2,0.9,-999.0,yes,yes,no,300234010421100,SVP-B,unknown,unknown,North
2012-06-04T10:00:28Z,1338804029,2012,10,0,156.417,156.417,71.3554,-155.6678,1022.2,0.7,-999.0,yes,yes,no,300234010421100,SVP-B,unknown,unknown,North
2012-06-04T10:59:31Z,1338807571,2012,11,0,156.458,156.458,71.3554,-155.6676,1022.5,0.5,-999.0,yes,yes,no,300234010421100,SVP-B,unknown,unknown,North
2012-06-04T12:00:00Z,1338811200,2012,12,0,156.5,156.5,71.3554,-155.6674,1023.0,0.3,-999.0,yes,yes,no,300234010421100,SVP-B,unknown,unknown,North
2012-06-04T13:00:28Z,1338814829,2012,13,0,156.542,156.542,71.3554,-155.6676,1023.3,0.3,-999.0,yes,yes,no,300234010421100,SVP-B,unknown,unknown,North
2012-06-04T13:59:31Z,1338818371,2012,14,0,156.583,156.583,71.3554,-155.6674,1023.7,0.4,-999.0,yes,yes,no,300234010421100,SVP-B,unknown,unknown,North
2012-06-04T15:00:00Z,1338822000,2012,15,0,156.625,156.625,71.3554,-155.6676,1024.1,0.6,-999.0,yes,yes,no,300234010421100,SVP-B,unknown,unknown,North
2012-06-04T16:00:28Z,1338825629,2012,16,0,156.667,156.667,71.3554,-155.6676,1024.2,0.8,-999.0,yes,yes,no,300234010421100,SVP-B,unknown,unknown,North
2012-06-04T16:59:31Z,1338829171,2012,17,0,156.708,156.708,71.3554,-155.6676,1024.3,1.2,-999.0,yes,yes,no,300234010421100,SVP-B,unknown,unknown,North
2012-06-04T18:00:00Z,1338832800,2012,18,0,156.75,156.75,71.3554,-155.6676,1024.4,1.4,-999.0,yes,yes,no,300234010421100,SVP-B,unknown,unknown,North
2012-06-04T19:00:28Z,1338836429,2012,19,0,156.792,156.792,71.3554,-155.6676,1024.3,1.7,-999.0,yes,yes,no,300234010421100,SVP-B,unknown,unknown,North
2012-06-04T19:59:31Z,1338839971,2012,20,0,156.833,156.833,71.3554,-155.6676,1024.4,1.8,-999.0,yes,yes,no,300234010421100,SVP-B,unknown,unknown,North
2012-06-04T21:00:00Z,1338843600,2012,21,0,156.875,156.875,71.3554,-155.6676,1024.3,2.0,-999.0,yes,yes,no,300234010421100,SVP-B,unknown,unknown,North
2012-06-04T22:00:28Z,1338847229,2012,22,0,156.917,156.917,71.3554,-155.6676,1024.3,2.2,-999.0,yes,yes,no,300234010421100,SVP-B,unknown,unknown,North
2012-06-04T22:59:31Z,1338850771,2012,23,0,156.958,156.958,71.3554,-155.6676,1023.9,2.1,-999.0,yes,yes,no,300234010421100,SVP-B,unknown,unknown,North
2012-06-05T00:00:00Z,1338854400,2012,0,0,157.0,157.0,71.3554,-155.6676,1023.8,2.1,-999.0,yes,yes,no,300234010421100,SVP-B,unknown,unknown,North
2012-06-05T01:00:28Z,1338858029,2012,1,0,157.042,157.042,71.3554,-155.6676,1023.5,2.1,-999.0,yes,yes,no,300234010421100,SVP-B,unknown,unknown,North
2012-06-05T01:59:31Z,1338861571,2012,2,0,157.083,157.083,71.3554,-155.6678,1022.8,1.9,-999.0,yes,yes,no,300234010421100,SVP-B,unknown,unknown,North
2012-06-05T03:00:00Z,1338865200,2012,3,0,157.125,157.125,71.3554,-155.6676,1022.4,1.7,-999.0,yes,yes,no,300234010421100,SVP-B,unknown,unknown,North
2012-06-05T04:00:28Z,1338868829,2012,4,0,157.167,157.167,71.3554,-155.6676,1022.8,1.6,-999.0,yes,yes,no,300234010421100,SVP-B,unknown,unknown,North
2012-06-05T04:59:31Z,1338872371,2012,5,0,157.208,157.208,71.3554,-155.6676,1022.5,1.4,-999.0,yes,yes,no,300234010421100,SVP-B,unknown,unknown,North
2012-06-05T06:00:00Z,1338876000,2012,6,0,157.25,157.25,71.3554,-155.6676,1022.7,1.2,-999.0,yes,yes,no,300234010421100,SVP-B,unknown,unknown,North
2012-06-05T07:00:28Z,1338879629,2012,7,0,157.292,157.292,71.3554,-155.6676,1022.8,0.9,-999.0,yes,yes,no,300234010421100,SVP-B,unknown,unknown,North
2012-06-05T07:59:31Z,1338883171,2012,8,0,157.333,157.333,71.3554,-155.6676,1023.0,0.8,-999.0,yes,yes,no,300234010421100,SVP-B,unknown,unknown,North
2012-06-05T09:00:00Z,1338886800,2012,9,0,157.375,157.375,71.3554,-155.6676,1023.2,0.6,-999.0,yes,yes,no,300234010421100,SVP-B,unknown,unknown,North
2012-06-05T10:00:28Z,1338890429,2012,10,0,157.417,157.417,71.3554,-155.6676,1023.2,0.5,-999.0,yes,yes,no,300234010421100,SVP-B,unknown,unknown,North
2012-06-05T10:59:31Z,1338893971,2012,11,0,157.458,157.458,71.3554,-155.6676,1023.1,0.4,-999.0,yes,yes,no,300234010421100,SVP-B,unknown,unknown,North
2012-06-05T12:00:00Z,1338897600,2012,12,0,157.5,157.5,71.3554,-155.6676,1023.1,0.4,-999.0,yes,yes,no,300234010421100,SVP-B,unknown,unknown,North
2012-06-05T13:00:28Z,1338901229,2012,13,0,157.542,157.542,71.3554,-155.6676,1023.4,0.3,-999.0,yes,yes,no,300234010421100,SVP-B,unknown,unknown,North
2012-06-05T13:59:31Z,1338904771,2012,14,0,157.583,157.583,71.3554,-155.6676,1023.5,0.3,-999.0,yes,yes,no,300234010421100,SVP-B,unknown,unknown,North
2012-06-05T15:00:00Z,1338908400,2012,15,0,157.625,157.625,71.3554,-155.6676,1023.8,0.4,-999.0,yes,yes,no,300234010421100,SVP-B,unknown,unknown,North
2012-06-05T16:00:28Z,1338912029,2012,16,0,157.667,157.667,71.3554,-155.6676,1024.0,0.6,-999.0,yes,yes,no,300234010421100,SVP-B,unknown,unknown,North
2012-06-05T16:59:31Z,1338915571,2012,17,0,157.708,157.708,71.3554,-155.6676,1023.3,0.8,-999.0,yes,yes,no,300234010421100,SVP-B,unknown,unknown,North
2012-06-05T18:00:00Z,1338919200,2012,18,0,157.75,157.75,71.3554,-155.6676,1023.4,0.9,-999.0,yes,yes,no,300234010421100,SVP-B,unknown,unknown,North
2012-06-05T19:00:28Z,1338922829,2012,19,0,157.792,157.792,71.3554,-155.6676,1023.2,0.9,-999.0,yes,yes,no,300234010421100,SVP-B,unknown,unknown,North
2012-06-05T19:59:31Z,1338926371,2012,20,0,157.833,157.833,71.3554,-155.6676,1023.3,0.9,-999.0,yes,yes,no,300234010421100,SVP-B,unknown,unknown,North
2012-06-05T21:00:00Z,1338930000,2012,21,0,157.875,157.875,71.3554,-155.6676,1023.2,1.0,-999.0,yes,yes,no,300234010421100,SVP-B,unknown,unknown,North
2012-06-05T22:00:28Z,1338933629,2012,22,0,157.917,157.917,71.3554,-155.6676,1022.9,1.1,-999.0,yes,yes,no,300234010421100,SVP-B,unknown,unknown,North
2012-06-05T22:59:31Z,1338937171,2012,23,0,157.958,157.958,71.3554,-155.6676,1023.3,1.1,-999.0,yes,yes,no,300234010421100,SVP-B,unknown,unknown,North
2012-06-06T00:00:00Z,1338940800,2012,0,0,158.0,158.0,71.3554,-155.6676,1022.9,1.2,-999.0,yes,yes,no,300234010421100,SVP-B,unknown,unknown,North
2012-06-06T01:00:28Z,1338944429,2012,1,0,158.042,158.042,71.3554,-155.6676,1022.9,1.1,-999.0,yes,yes,no,300234010421100,SVP-B,unknown,unknown,North
2012-06-06T01:59:31Z,1338947971,2012,2,0,158.083,158.083,71.3554,-155.6676,1023.0,1.1,-999.0,yes,yes,no,300234010421100,SVP-B,unknown,unknown,North
2012-06-06T03:00:00Z,1338951600,2012,3,0,158.125,158.125,71.3554,-155.6676,1022.9,1.1,-999.0,yes,yes,no,300234010421100,SVP-B,unknown,unknown,North
2012-06-06T04:00:28Z,1338955229,2012,4,0,158.167,158.167,71.3554,-155.6676,1022.8,1.0,-999.0,yes,yes,no,300234010421100,SVP-B,unknown,unknown,North
2012-06-06T04:59:31Z,1338958771,2012,5,0,158.208,158.208,71.3554,-155.6676,1023.2,0.9,-999.0,yes,yes,no,300234010421100,SVP-B,unknown,unknown,North
2012-06-06T06:00:00Z,1338962400,2012,6,0,158.25,158.25,71.3554,-155.6676,1022.8,0.8,-999.0,yes,yes,no,300234010421100,SVP-B,unknown,unknown,North
2012-06-06T07:00:28Z,1338966029,2012,7,0,158.292,158.292,71.3554,-155.6676,1023.4,0.7,-999.0,yes,yes,no,300234010421100,SVP-B,unknown,unknown,North
2012-06-06T07:59:31Z,1338969571,2012,8,0,158.333,158.333,71.3554,-155.6674,1023.8,0.6,-999.0,yes,yes,no,300234010421100,SVP-B,unknown,unknown,North
2012-06-06T09:00:00Z,1338973200,2012,9,0,158.375,158.375,71.3554,-155.6676,1024.7,0.5,-999.0,yes,yes,no,300234010421100,SVP-B,unknown,unknown,North
2012-06-06T10:00:28Z,1338976829,2012,10,0,158.417,158.417,71.3554,-155.6676,1024.9,0.4,-999.0,yes,yes,no,300234010421100,SVP-B,unknown,unknown,North
2012-06-06T10:59:31Z,1338980371,2012,11,0,158.458,158.458,71.3554,-155.6676,1025.0,0.4,-999.0,yes,yes,no,300234010421100,SVP-B,unknown,unknown,North
2012-06-06T12:00:00Z,1338984000,2012,12,0,158.5,158.5,71.3554,-155.6676,1025.1,0.3,-999.0,yes,yes,no,300234010421100,SVP-B,unknown,unknown,North
2012-06-06T13:00:28Z,1338987629,2012,13,0,158.542,158.542,71.3554,-155.6676,1025.3,0.3,-999.0,yes,yes,no,300234010421100,SVP-B,unknown,unknown,North
2012-06-06T13:59:31Z,1338991171,2012,14,0,158.583,158.583,71.3554,-155.6676,1025.6,0.3,-999.0,yes,yes,no,300234010421100,SVP-B,unknown,unknown,North
2012-06-06T15:00:00Z,1338994800,2012,15,0,158.625,158.625,71.3554,-155.6676,1025.8,0.3,-999.0,yes,yes,no,300234010421100,SVP-B,unknown,unknown,North
2012-06-06T16:00:28Z,1338998429,2012,16,0,158.667,158.667,71.3554,-155.6676,1025.9,0.3,-999.0,yes,yes,no,300234010421100,SVP-B,unknown,unknown,North